Location: Betzi
(47.2343°N, 9.5260°E)
Time: 15:52:55
(UTC+00:00)

Cosmos 332 Rocket - Pass Details

Date: 27 May 2022
Orbit: 681 x 703 km, 74.0° (Epoch: 07 July)

Event Time Altitude Azimuth Distance (km) Brightness Sun altitude
Exits shadow 01:08:14 27° 238° (WSW) 1,293 4.7 -17.2°
Maximum altitude 01:10:28 48° 297° (WNW) 891 4.3 -17.0°
Drops below altitude 10° 01:15:07 10° 13° (NNE) 2,133 7.5 -16.7°
Sets 01:17:31 0° 19° (NNE) 3,054 8.8 -16.5°
